Recent Trickster deaths

This page shows the most recent deaths from the past two weeks.


Maxed stats: 012345678

Base fame: 0201504008002000

We have found 4,239 matching graves.

NameDied onBFTFEquipmentStatsKilled by
Heuchs2019-08-22T22:44:16Z2474740/8Oryx Eye Warrior
Johnnybaut2019-08-22T22:40:30Z4625681/8GC Red Worm Body
JONGSTER2019-08-22T22:39:09Z22280/8Desire Troll
Private
XenonCulo2019-08-22T22:35:05Z153622027/8LH Malus 2
Said2019-08-22T22:21:54Z330/8Oryx Pet
Private
Mrpixelos2019-08-22T22:04:50Z110/8Hobbit Mage
Knowthy2019-08-22T21:49:15Z2944230/8EH Venom
Unnumbered2019-08-22T21:37:36Z3298400/8Corrupted Spearman
Private
Private
Private
Beastkyle2019-08-22T20:23:27Z3554767/8Ghost God
Bromanpwns2019-08-22T20:23:25Z2693665/8O2 Bullet Split
Willybonk2019-08-22T20:23:02Z255243138/8LH Molek
NotMyNane2019-08-22T20:17:48Z25370/8Limon the Sprite God
PandalfIII2019-08-22T20:11:10Z660/8Lair Mummy King
Deplington2019-08-22T20:04:10Z50415660/8mc
CommonM2019-08-22T20:03:47Z1992850/8Crawling Green Spider
JossieNPE2019-08-22T20:03:30Z880/8Flying Brain
PandalfIII2019-08-22T20:01:53Z110/8Night Elf Archer
JossieNPE2019-08-22T19:51:31Z12120/8Greater Pit Snake
NotMyNane2019-08-22T19:49:08Z220/8EH Fat Bees
Molokonlol2019-08-22T19:45:39Z2032360/8shtrs Stone Paladin
Private
NotMyNane2019-08-22T19:41:51Z000/8Sprite God
Private
NotMyNane2019-08-22T19:39:11Z440/8Lair Little Black Slime
JossieNPE2019-08-22T19:38:55Z18180/8Lair Little Black Slime
Kvothered2019-08-22T19:20:38Z3807917/8LH Oryx Swordsman
Private
Private
PoopPickle2019-08-22T19:05:53Z72212328/8LH Purple Cultist
Private
Eestis2019-08-22T18:50:06Z64410437/8Medusa
DVNA2019-08-22T18:48:37Z29530/8LOD Rock Dragon Bat
Private
Private
Fondew2019-08-22T18:23:12Z2324760/8Oryx Insect Minion
Private
Heuchs2019-08-22T18:18:15Z110/8Greater Pit Snake
Private
ForrgriM2019-08-22T18:11:51Z5177954/8LH Marble Colossus
Private
Private
Donroli2019-08-22T18:08:32Z119724848/8mc
Private
Bilbis2019-08-22T18:03:04Z3414910/8shtrs Ice Shield
Heuchs2019-08-22T17:51:33Z550/8LOD Rock Dragon Head
Private
JudgeKush2019-08-22T17:34:47Z000/8md2 Left Hand of Shaitan
HollerOk2019-08-22T17:33:27Z000/8Medusa
Heuchs2019-08-22T17:32:19Z000/8Hobbit Mage
MTheGod2019-08-22T17:30:34Z550/8Oryx Eye Warrior
HollerOk2019-08-22T17:28:31Z220/8Tomb Attacker
EludeDeath2019-08-22T17:25:55Z220/8Library Book Bomb
ProSeby2019-08-22T17:25:32Z000/8Epic Mama Megamoth
BlubberGub2019-08-22T17:22:56Z156923698/8GC Mushroom Slammer Leader
HollerOk2019-08-22T17:21:43Z110/8Lair Little Black Slime
Valordy2019-08-22T17:18:43Z25370/8Lava
Private
Private
Private
Private
LennyxD2019-08-22T16:50:26Z2202790/8Red Gas Spawner LL
Private
Ffchickens2019-08-22T16:46:42Z770/8Aberrant Blaster
Ffchickens2019-08-22T16:37:47Z110/8Paper Bot
Kvothered2019-08-22T16:36:48Z2374628/8LH Grotto Slime
Molokonlol2019-08-22T16:27:57Z3053510/8Abomination of Oryx
JossieNPE2019-08-22T16:25:40Z330/8Ghost God
Private
CYJJ2019-08-22T16:20:35Z2593120/8Ghost God
ChufliMC2019-08-22T16:15:54Z3534577/8Crystallised Fish
Private
Private
Cophia2019-08-22T15:54:28Z110/8Djinn
Ffchickens2019-08-22T15:53:30Z110/8Ghost God
Cophia2019-08-22T15:51:04Z000/8Mini Megamoth
LennyxD2019-08-22T15:42:55Z25300/8Tempest Cloud
Private
Goodjt2019-08-22T15:37:04Z5406350/8CC Crystal Worm Child
Private
LennyxD2019-08-22T15:24:19Z220/8Stheno the Snake Queen
Bilbis2019-08-22T15:23:45Z110/8Ogre Wizard
Private
Private
Private
Imbobby2019-08-22T15:15:31Z92420227/8O2 Bullet Split
Molokonlol2019-08-22T15:02:49Z000/8Medusa
Molokonlol2019-08-22T15:00:49Z000/8Ghost God
Bilbis2019-08-22T14:57:40Z000/8Crusher Abomination
Simplices2019-08-22T14:53:33Z000/8Lair Blast Trap
Bilbis2019-08-22T14:52:09Z681150/8O2 Bomb Artifact
Molokonlol2019-08-22T14:49:05Z660/8Medusa
Private
BLAAC2019-08-22T14:46:39Z220/8Leviathan
Private
Molokonlol2019-08-22T14:33:29Z000/8Slime God